Madison, WI

5:19 PM CDT on June 17, 2018 (GMT -0500)
Dane County Regional-Truax

Weather History for KMSN - September, 2006

Change the Weather History Date:

Sunday, September 10, 2006

  Actual Average Record
Temperature  
Mean Temperature 56 °F 64 °F  
Max Temperature 59 °F 74 °F 95 °F (1931)
Min Temperature 53 °F 53 °F 33 °F (1967)
Degree Days  
Heating Degree Days 9 4  
Month to date heating degree days 28 28  
Since 1 July heating degree days 32 65  
Cooling Degree Days 0 2  
Month to date cooling degree days 9 28  
Year to date cooling degree days 622 541  
Growing Degree Days 6 (Base 50)    
Moisture  
Dew Point 52 °F    
Average Humidity 89    
Maximum Humidity 100    
Minimum Humidity 77    
Precipitation  
Precipitation 0.46 in 0.10 in 2.00 in (1876)
Month to date precipitation 1.28 1.12  
Year to date precipitation 28.21 25.94  
Snow  
Snow 0.00 in 0.00 in 0.00 in ()
Month to date snowfall 0.0 0.0  
Since 1 July snowfall 0.0 0.0  
Since 1 September snowfall 0.0 0.0  
Snow Depth 0.00 in    
Sea Level Pressure  
Sea Level Pressure 30.21 in    
Wind  
Wind Speed 10 mph (ENE)    
Max Wind Speed 20 mph    
Max Gust Speed 23 mph    
Visibility 8 miles    
Events Rain    
T = Trace of Precipitation, MM = Missing Value Source: NWS Daily Summary

Daily Weather History Graph

Daily Weather History Graph

Search for Another Location

Airport or City:

Astronomy

Sep. 10, 2006 Rise Set
Actual Time 6:31 AM CDT 7:16 PM CDT
Civil Twilight 6:02 AM CDT 7:45 PM CDT
Nautical Twilight 5:28 AM CDT 8:19 PM CDT
Astronomical Twilight 4:52 AM CDT 8:54 PM CDT
Moon 8:40 PM CDT (9/10) 10:08 AM CDT (9/10)
Length of Visible Light 13h 42m
Length of Day
12h 45m
Waning Gibbous, 88% of the Moon is Illuminated
Sep 10
Waning Gibbous
Sep 14
Last Quarter
Sep 22
New
Sep 30
First Quarter
Oct 6
Full

Hourly Weather History & Observations

Time (CDT) Temp. Dew Point Humidity Pressure Visibility Wind Dir Wind Speed Gust Speed Precip Events Conditions
12:53 AM 54.0 °F 46.9 °F 77% 30.19 in 10.0 mi NNE 8.1 mph - N/A   Mostly Cloudy
1:26 AM 53.6 °F 46.4 °F 77% 30.19 in 10.0 mi NNE 6.9 mph - N/A   Overcast
1:53 AM 54.0 °F 48.0 °F 80% 30.19 in 10.0 mi NNE 5.8 mph - N/A   Overcast
2:53 AM 55.0 °F 48.9 °F 80% 30.19 in 10.0 mi NE 5.8 mph - N/A   Overcast
3:53 AM 55.9 °F 48.9 °F 77% 30.19 in 10.0 mi ENE 8.1 mph - N/A   Overcast
4:53 AM 55.9 °F 50.0 °F 80% 30.18 in 10.0 mi NE 6.9 mph - N/A   Overcast
5:30 AM 55.4 °F 51.8 °F 88% 30.18 in 10.0 mi ENE 8.1 mph - N/A   Overcast
5:53 AM 55.9 °F 51.1 °F 84% 30.19 in 10.0 mi ENE 8.1 mph - N/A   Overcast
6:53 AM 55.9 °F 52.0 °F 87% 30.20 in 10.0 mi NE 8.1 mph - N/A   Overcast
7:00 AM 57.2 °F 51.8 °F 82% 30.20 in 10.0 mi NE 6.9 mph - N/A   Overcast
7:53 AM 57.0 °F 53.1 °F 87% 30.21 in 10.0 mi ENE 10.4 mph - N/A   Overcast
8:53 AM 57.9 °F 54.0 °F 87% 30.21 in 10.0 mi East 10.4 mph - 0.00 in Rain Light Rain
9:53 AM 59.0 °F 53.1 °F 81% 30.22 in 10.0 mi East 12.7 mph - 0.00 in Rain Light Rain
10:11 AM 59.0 °F 53.6 °F 82% 30.22 in 10.0 mi East 15.0 mph 20.7 mph 0.00 in Rain Light Rain
10:42 AM 57.2 °F 53.6 °F 88% 30.23 in 7.0 mi East 13.8 mph - 0.00 in Rain Light Rain
10:53 AM 57.9 °F 54.0 °F 87% 30.23 in 7.0 mi East 11.5 mph - 0.00 in Rain Light Rain
11:34 AM 59.0 °F 53.6 °F 82% 30.22 in 10.0 mi East 12.7 mph - 0.01 in Rain Light Rain
11:53 AM 59.0 °F 54.0 °F 83% 30.23 in 10.0 mi East 9.2 mph - 0.01 in Rain Light Rain
12:06 PM 59.0 °F 53.6 °F 82% 30.23 in 9.0 mi ENE 12.7 mph - 0.00 in Rain Light Rain
12:53 PM 59.0 °F 53.1 °F 81% 30.23 in 10.0 mi ENE 13.8 mph - 0.01 in Rain Light Rain
1:53 PM 57.9 °F 52.0 °F 81% 30.23 in 10.0 mi East 12.7 mph - 0.00 in Rain Light Rain
2:53 PM 57.0 °F 53.1 °F 87% 30.23 in 7.0 mi ENE 11.5 mph - 0.01 in Rain Light Rain
3:25 PM 55.4 °F 51.8 °F 88% 30.22 in 6.0 mi ENE 10.4 mph - 0.01 in Rain Light Rain
3:53 PM 55.0 °F 52.0 °F 89% 30.23 in 5.0 mi ENE 10.4 mph - 0.02 in Rain Light Rain
4:53 PM 54.0 °F 51.1 °F 90% 30.22 in 5.0 mi ENE 10.4 mph - 0.04 in Rain Light Rain
5:29 PM 53.6 °F 51.8 °F 94% 30.21 in 6.0 mi NE 10.4 mph - 0.02 in Rain Light Rain
5:53 PM 53.1 °F 51.1 °F 93% 30.22 in 4.0 mi NE 9.2 mph - 0.03 in Rain Light Rain
6:29 PM 53.6 °F 51.8 °F 94% 30.20 in 3.0 mi NE 9.2 mph - 0.04 in Rain Light Rain
6:53 PM 53.1 °F 51.1 °F 93% 30.20 in 4.0 mi ENE 13.8 mph - 0.07 in Rain Light Rain
7:08 PM 53.6 °F 51.8 °F 94% 30.20 in 2.5 mi ENE 11.5 mph - 0.02 in Rain Rain
7:48 PM 53.6 °F 51.8 °F 94% 30.21 in 6.0 mi ENE 10.4 mph - 0.06 in Rain Light Rain
7:53 PM 53.1 °F 52.0 °F 96% 30.22 in 5.0 mi ENE 11.5 mph - 0.06 in Rain Rain
8:30 PM 53.6 °F 51.8 °F 94% 30.21 in 6.0 mi ENE 11.5 mph - 0.06 in Rain Light Rain
8:53 PM 53.1 °F 52.0 °F 96% 30.22 in 9.0 mi ENE 9.2 mph - 0.09 in Rain Light Rain
9:23 PM 53.6 °F 51.8 °F 94% 30.22 in 6.0 mi ENE 9.2 mph - 0.02 in Rain Light Rain
9:37 PM 53.6 °F 51.8 °F 94% 30.22 in 6.0 mi ENE 10.4 mph - 0.03 in Rain Light Rain
9:53 PM 53.1 °F 52.0 °F 96% 30.22 in 8.0 mi ENE 9.2 mph - 0.04 in Rain Light Rain
10:31 PM 53.6 °F 51.8 °F 94% 30.21 in 6.0 mi ENE 8.1 mph - 0.03 in Rain Light Rain
10:53 PM 54.0 °F 52.0 °F 93% 30.21 in 7.0 mi ENE 8.1 mph - 0.05 in Rain Light Rain
11:53 PM 54.0 °F 53.1 °F 97% 30.21 in 10.0 mi ENE 9.2 mph - 0.03 in Rain Light Rain